Home > Time Zones > World Clock > Weather > Egypt > Cairo > Past weeks

Flag for Egypt Weather past 2 weeks in Cairo, Egypt

Now
72 °F

Clear.


Feels Like: 76 °F
Forecast: 64 / 81 °F
Wind: 6 mph from North

Location: Cairo Airport

Current Time: Oct 20, 2014 at 9:12:33 PM

Latest Report: Oct 20, 2014 at 9:00 PM


Visibility: 10 mi

Pressure: 30.01 "Hg

Humidity: 57%

Dew point: 55 °F

Location of CairoLocation

Historic Weather in Cairo — Graph

°F

Cairo temperature yesterday

Maximum temperature yesterday: 84 °F (at 2:30 PM)
Minimum temperature yesterday: 70 °F (at 11:00 PM)
Average temperature yesterday: 76 °F

Past Weeks' High & Low Weather Summary

 TemperatureHumidityPressure
High93 °F (Oct 8, 10:00 PM)100% (Oct 18, 12:00 AM)30.15 "Hg (Oct 18, 12:00 AM)
Low36 °F (Oct 18, 12:00 AM)28% (Oct 20, 2:30 PM)29.80 "Hg (Oct 19, 3:00 PM)
Average76 °F60%29.99 "Hg
* Reported Oct 5 8:00 PM — Oct 20 8:00 PM, Cairo, Weather by CustomWeather, © 2014

Note: Actual official high and low records may vary slightly from our data, if they occured in-between our weather recording intervals... More about our weather records

Advertising

Cairo weather history for previous 24 hours

 ConditionsComfort  
Time TempWeatherWind HumidityBarometerVisibility
8:00 PM
Oct 20
73 °FClear.9 mph53%29.98 "Hg10 mi
7:30 PM73 °FClear.8 mph53%29.98 "Hg10 mi
7:00 PM75 °FClear.8 mph47%29.95 "Hg10 mi
6:30 PM75 °FPassing clouds.7 mph41%29.95 "HgN/A
6:00 PM77 °FPassing clouds.7 mph42%29.95 "HgN/A
5:30 PM77 °FPassing clouds.8 mph44%29.92 "HgN/A
5:00 PM77 °FScattered clouds.8 mph42%29.92 "HgN/A
4:30 PM79 °FScattered clouds.8 mph39%29.92 "HgN/A
4:00 PM79 °FScattered clouds.8 mph34%29.92 "HgN/A
3:30 PM81 °FPassing clouds.8 mph30%29.92 "HgN/A
3:00 PM81 °FPassing clouds.10 mph28%29.92 "HgN/A
2:30 PM81 °FPassing clouds.10 mph28%29.92 "HgN/A
2:00 PM79 °FPassing clouds.8 mph32%29.92 "HgN/A
1:30 PM79 °FScattered clouds.8 mph32%29.92 "HgN/A
1:00 PM79 °FScattered clouds.8 mph34%29.95 "HgN/A
12:30 PM79 °FScattered clouds.7 mph34%29.95 "HgN/A
12:00 PM77 °FScattered clouds.7 mph36%29.95 "HgN/A
11:30 AM77 °FScattered clouds.9 mph36%29.98 "HgN/A
11:00 AM77 °FPassing clouds.9 mph32%29.98 "HgN/A
10:30 AM77 °FPassing clouds.10 mph34%29.98 "HgN/A
10:00 AM75 °FPassing clouds.10 mph41%29.98 "HgN/A
9:30 AM73 °FPassing clouds.7 mph50%29.98 "HgN/A
9:00 AM72 °FSunny.5 mph65%29.98 "Hg10 mi
8:30 AM72 °FClear.No wind65%29.98 "Hg4 mi
8:00 AM70 °FFog.No wind73%29.98 "Hg3 mi
7:00 AM68 °FFog.No wind78%29.95 "Hg2 mi
5:00 AM66 °FFog.No wind83%29.92 "Hg2 mi
4:30 AM68 °FFog.No wind78%29.92 "Hg2 mi
4:00 AM68 °FFog.No wind73%29.92 "Hg2 mi
3:30 AM68 °FFog.5 mph73%29.92 "Hg2 mi
3:00 AM68 °FFog.5 mph73%29.92 "Hg2 mi
2:30 AM70 °FFog.5 mph78%29.92 "Hg2 mi
2:00 AM70 °FFog.6 mph78%29.92 "Hg2 mi
1:30 AM70 °FClear.5 mph78%29.92 "Hg4 mi
1:00 AM70 °FClear.5 mph78%29.92 "Hg4 mi
12:30 AM70 °FClear.7 mph83%29.92 "Hg4 mi
12:00 AM70 °FClear.7 mph83%29.92 "Hg4 mi
11:30 PM
Oct 19
70 °FClear.8 mph83%29.92 "Hg4 mi
11:00 PM70 °FClear.8 mph83%29.92 "Hg4 mi
10:30 PM72 °FPassing clouds.9 mph73%29.92 "HgN/A
10:00 PM72 °FPassing clouds.9 mph73%29.92 "HgN/A
9:30 PM73 °FPassing clouds.8 mph69%29.92 "HgN/A
9:00 PM73 °FPassing clouds.8 mph69%29.92 "HgN/A
Weather by CustomWeather, © 2014

See weather overviewHow to use our weather pages